Location: Alafon
(8.4500°N, 4.2333°E)
Time: 17:15:17
(UTC+00:00)

SR - Pass Details

Date: 04 August 2021
Orbit: 581 x 874 km, 66.7° (Epoch: 18 September)

Event Time Altitude Azimuth Distance (km) Brightness Sun altitude
Rises 15:09:43 0° 339° (NNW) 2,862 ? 40.5°
Reaches altitude 10° 15:12:00 10° 338° (NNW) 1,931 ? 39.9°
Maximum altitude 15:16:18 85° 250° (WSW) 588 ? 38.9°
Drops below altitude 10° 15:20:30 10° 162° (SSE) 1,889 ? 37.9°
Sets 15:22:43 0° 161° (SSE) 2,793 ? 37.4°
